Weather History for Viroqua, WI

Change the Weather History Date:

Friday, August 23, 2013

  Actual Average (KLSE) Record (KLSE)
Temperature  
Mean Temperature 70 °F 71 °F  
Max Temperature 79 °F 81 °F 101 °F (1942)
Min Temperature 60 °F 61 °F 43 °F (1891)
Degree Days  
Heating Degree Days 0 1  
Month to date heating degree days 3  
Since 1 June heating degree days 46  
Since 1 July heating degree days 8  
Cooling Degree Days 4 6  
Month to date cooling degree days 170  
Year to date cooling degree days 657  
Since 1 June cooling degree days 609  
Growing Degree Days 20 (Base 50)    
Moisture  
Dew Point 62 °F    
Average Humidity 81    
Maximum Humidity 100    
Minimum Humidity 48    
Precipitation  
Precipitation 0.00 in 0.13 in 1.73 in (1895)
Month to date precipitation 3.26  
Year to date precipitation 22.93  
Snow  
Snow 0.00 in 0.00 in 0.00 in (2002)
Month to date snowfall 0.0  
Since 1 June snowfall 0.0  
Since 1 July snowfall 0.0  
Snow Depth -    
Sea Level Pressure  
Sea Level Pressure 30.16 in    
Wind  
Wind Speed 4 mph (SSE)    
Max Wind Speed 10 mph    
Max Gust Speed 16 mph    
Visibility 7 miles    
Events      
T = Trace of Precipitation, MM = Missing Value Source: NWS Daily Summary

Daily Weather History Graph

Daily Weather History Graph

Search for Another Location

Airport:

Trip Planner

Search our weather history database for the weather conditions in past years. The results will help you decide how hot, cold, wet, or windy it might be!

Date:

Astronomy

Aug. 23, 2013 Rise Set
Actual Time 6:17 AM CDT 7:53 PM CDT
Civil Twilight 5:47 AM CDT 8:24 PM CDT
Nautical Twilight 5:10 AM CDT 9:00 PM CDT
Astronomical Twilight 4:31 AM CDT 9:39 PM CDT
Moon 9:04 PM CDT (8/23) 9:20 AM CDT (8/23)
Length of Visible Light 14h 36m
Length of Day
13h 36m
Waning Gibbous, 91% of the Moon is Illuminated
Aug 23
Waning Gibbous
Aug 28
Last Quarter
Sep 5
New
Sep 12
First Quarter
Sep 19
Full

Hourly Weather History & Observations

Time (CDT) Temp. Dew Point Humidity Pressure Visibility Wind Dir Wind Speed Gust Speed Precip Events Conditions
12:15 AM 66.4 °F 66.2 °F 99% 30.14 in 10.0 mi SSW 3.5 mph - N/A   Clear
12:35 AM 67.8 °F 66.4 °F 95% 30.14 in 10.0 mi Calm Calm - N/A   Clear
12:55 AM 65.1 °F 65.1 °F 100% 30.14 in 10.0 mi Calm Calm - N/A   Clear
1:15 AM 64.6 °F 64.6 °F 100% 30.14 in 7.0 mi Calm Calm - N/A   Scattered Clouds
1:35 AM 64.2 °F 64.2 °F 100% 30.14 in 7.0 mi Calm Calm - N/A   Scattered Clouds
1:55 AM 65.3 °F 65.3 °F 100% 30.14 in 10.0 mi Calm Calm - N/A   Clear
2:15 AM 66.2 °F 66.2 °F 100% 30.14 in 10.0 mi Calm Calm - N/A   Clear
2:35 AM 66.4 °F 66.4 °F 100% 30.14 in 10.0 mi Calm Calm - N/A   Clear
2:55 AM 64.6 °F 64.6 °F 100% 30.14 in 4.0 mi Calm Calm - N/A   Clear
3:15 AM 64.2 °F 64.2 °F 100% 30.14 in 5.0 mi SE 5.8 mph - N/A   Clear
3:35 AM 62.8 °F 62.8 °F 100% 30.15 in 5.0 mi ESE 5.8 mph - N/A   Clear
3:55 AM 61.7 °F 61.7 °F 100% 30.15 in 4.0 mi SE 5.8 mph - N/A   Clear
4:15 AM 60.3 °F 60.3 °F 100% 30.15 in 2.5 mi East 3.5 mph - N/A   Clear
4:35 AM 60.4 °F 60.4 °F 100% 30.15 in 3.0 mi ESE 6.9 mph - N/A   Clear
4:55 AM 62.8 °F 62.8 °F 100% 30.15 in 0.5 mi SE 6.9 mph - N/A   Overcast
5:15 AM 62.8 °F 62.8 °F 100% 30.16 in 0.2 mi SE 5.8 mph - N/A   Overcast
5:35 AM 62.6 °F 62.6 °F 100% 30.17 in 0.2 mi SE 3.5 mph - N/A   Overcast
5:55 AM 61.9 °F 61.9 °F 100% 30.17 in 0.2 mi SE 3.5 mph - N/A   Overcast
6:15 AM 61.5 °F 61.5 °F 100% 30.17 in 0.2 mi SE 3.5 mph - N/A   Overcast
6:35 AM 61.7 °F 61.7 °F 100% 30.17 in 0.2 mi ESE 5.8 mph - N/A   Overcast
6:55 AM 61.0 °F 61.0 °F 100% 30.18 in 0.2 mi SE 8.1 mph - N/A   Overcast
7:15 AM 61.3 °F 61.3 °F 100% 30.18 in 0.2 mi SE 6.9 mph - N/A   Overcast
7:35 AM 61.9 °F 61.9 °F 100% 30.19 in 0.2 mi ESE 6.9 mph - N/A   Overcast
7:55 AM 62.6 °F 62.6 °F 100% 30.19 in 0.2 mi SE 6.9 mph - N/A   Overcast
8:15 AM 63.5 °F 63.5 °F 100% 30.19 in 0.2 mi SSE 6.9 mph - N/A   Overcast
8:35 AM 63.7 °F 63.7 °F 100% 30.20 in 0.2 mi SE 6.9 mph - N/A   Overcast
8:55 AM 64.9 °F 64.9 °F 100% 30.20 in 0.2 mi SSE 5.8 mph - N/A   Overcast
9:15 AM 65.7 °F 65.7 °F 100% 30.20 in 0.2 mi SE 6.9 mph - N/A   Overcast
9:35 AM 66.6 °F 66.6 °F 100% 30.20 in 0.8 mi SSE 4.6 mph - N/A   Overcast
9:55 AM 67.3 °F 67.3 °F 100% 30.20 in 4.0 mi South 6.9 mph - N/A   Overcast
10:15 AM 69.4 °F 69.4 °F 100% 30.20 in 5.0 mi SSE 8.1 mph - N/A   Overcast
10:35 AM 71.2 °F 69.3 °F 93% 30.20 in 7.0 mi SSE 6.9 mph - N/A   Overcast
10:55 AM 72.1 °F 68.9 °F 89% 30.20 in 10.0 mi South 4.6 mph - N/A   Mostly Cloudy
11:15 AM 74.5 °F 68.2 °F 81% 30.20 in 10.0 mi SSE 10.4 mph - N/A   Overcast
11:35 AM 73.0 °F 67.5 °F 83% 30.20 in 10.0 mi South 9.2 mph - N/A   Mostly Cloudy
11:55 AM 76.1 °F 66.4 °F 72% 30.20 in 10.0 mi SSE 8.1 mph - N/A   Mostly Cloudy
12:15 PM 75.9 °F 64.6 °F 68% 30.20 in 10.0 mi South 8.1 mph - N/A   Mostly Cloudy
12:35 PM 77.0 °F 64.0 °F 64% 30.19 in 10.0 mi SSE 8.1 mph - N/A   Scattered Clouds
12:55 PM 76.6 °F 63.7 °F 64% 30.18 in 10.0 mi South 6.9 mph - N/A   Scattered Clouds
1:15 PM 77.0 °F 63.7 °F 63% 30.18 in 10.0 mi SE 5.8 mph - N/A   Mostly Cloudy
1:35 PM 76.3 °F 63.3 °F 64% 30.18 in 10.0 mi SSE 9.2 mph - N/A   Mostly Cloudy
1:55 PM 78.6 °F 63.0 °F 59% 30.18 in 10.0 mi South 5.8 mph - N/A   Mostly Cloudy
2:15 PM 77.7 °F 62.1 °F 58% 30.17 in 10.0 mi SSE 6.9 mph - N/A   Mostly Cloudy
2:35 PM 78.4 °F 62.4 °F 58% 30.17 in 10.0 mi SSE 9.2 mph - N/A   Scattered Clouds
2:55 PM 79.2 °F 61.5 °F 55% 30.17 in 10.0 mi SSE 5.8 mph - N/A   Scattered Clouds
3:15 PM 78.1 °F 61.7 °F 57% 30.16 in 10.0 mi SSW 8.1 mph - N/A   Mostly Cloudy
3:35 PM 79.3 °F 59.7 °F 51% 30.16 in 10.0 mi South 6.9 mph 16.1 mph N/A   Mostly Cloudy
3:55 PM 79.2 °F 57.9 °F 48% 30.15 in 10.0 mi SSE 4.6 mph - N/A   Scattered Clouds
4:55 PM 79.2 °F 58.1 °F 48% 30.15 in 10.0 mi SSW 5.8 mph - N/A   Clear
5:15 PM 78.8 °F 57.4 °F 48% 30.15 in 10.0 mi SSE 9.2 mph - N/A   Clear
5:35 PM 78.8 °F 57.6 °F 48% 30.15 in 10.0 mi South 5.8 mph - N/A   Clear
5:55 PM 77.9 °F 57.2 °F 49% 30.14 in 10.0 mi SSE 5.8 mph - N/A   Clear
6:15 PM 77.7 °F 57.9 °F 50% 30.14 in 10.0 mi SSE 5.8 mph - N/A   Clear
6:35 PM 76.5 °F 57.6 °F 52% 30.14 in 10.0 mi SSE 6.9 mph - N/A   Clear
6:55 PM 75.7 °F 58.8 °F 56% 30.14 in 10.0 mi SSE 5.8 mph - N/A   Clear
7:15 PM 74.5 °F 59.2 °F 59% 30.14 in 10.0 mi SSE 4.6 mph - N/A   Clear
7:35 PM 73.0 °F 59.4 °F 62% 30.14 in 10.0 mi SSE 4.6 mph - N/A   Clear
7:55 PM 71.8 °F 59.2 °F 64% 30.14 in 10.0 mi SSE 4.6 mph - N/A   Clear
8:35 PM 70.5 °F 59.0 °F 67% 30.14 in 10.0 mi SSE 4.6 mph - N/A   Clear
8:55 PM 69.1 °F 59.2 °F 71% 30.15 in 10.0 mi SSE 5.8 mph - N/A   Clear
9:15 PM 68.9 °F 59.2 °F 71% 30.15 in 10.0 mi SSE 5.8 mph - N/A   Clear
9:35 PM 68.9 °F 59.4 °F 72% 30.15 in 10.0 mi SSE 5.8 mph - N/A   Clear
9:55 PM 68.7 °F 59.4 °F 72% 30.15 in 10.0 mi SSE 6.9 mph - N/A   Clear
10:15 PM 69.1 °F 59.5 °F 72% 30.16 in 10.0 mi South 6.9 mph - N/A   Clear
10:35 PM 67.5 °F 59.4 °F 75% 30.16 in 10.0 mi SSE 5.8 mph - N/A   Clear
10:55 PM 67.1 °F 59.4 °F 76% 30.16 in 10.0 mi SSE 5.8 mph - N/A   Clear
11:15 PM 67.1 °F 59.0 °F 75% 30.16 in 10.0 mi SSE 6.9 mph - N/A   Clear
11:35 PM 67.1 °F 59.0 °F 75% 30.16 in 10.0 mi SSE 6.9 mph - N/A   Clear
11:55 PM 66.6 °F 59.2 °F 77% 30.16 in 10.0 mi SE 8.1 mph - N/A   Clear